Weather in Gulistan

Uzbekistan     40°29′33″N   68°46′37″E
temp.,
°C
wind,
m/s
gust,
m/s
humid.,
%
clouds,
%
prec.,
mm/h
press.,
hPa
HPBL,
m
18 april, sun
sun1823:00+19s3340100 0.0 101760
02:00+18wsw3842100 0.0 1017194
05:00+18wsw4846100 0.0 1018196
08:00+19sw4644100 0.0 1020350
11:00+22wsw663492 0.0 10211026
14:00+25sw432339 0.0 10202846
17:00+25wsw332336 0.0 10192881
20:00+21sw23344 0.0 101957
19 april, mon
mon1923:00+18ssw2241100 0.0 101915
02:00+17se224483 0.0 101811
05:00+16e2246100 0.0 101714
08:00+19se473742 0.0 1017340
11:00+24ese44268 0.0 10151607
14:00+26ne32195 0.0 10132487
17:00+26nne3217100 0.0 10112401
20:00+22n3425100 0.0 101256
20 april, tue
tue2023:00+19ene3837100 0.0 1011144
02:00+18ese1138100 0.0 101011
05:00+18ssw1137100 0.0 101011
08:00+20sw1232100 0.0 1011134
11:00+25wsw3423100 0.0 10101197
14:00+25nw6726100 0.0 10112766
17:00+21ssw2540100 0.2 1012852
20:00+18se484914 0.1 1012184
21 april, wed
wed2123:00+16se47562 0.1 1010132
02:00+16s2255100 0.1 100832
05:00+15nw3468100 0.2 100973
08:00+15nw5674100 0.3 1014638
11:00+13nw6884100 2.9 1017496
14:00+14wnw4665100 0.9 1018779
17:00+16sw445583 1.1 1018733
20:00+13sw35747 0.0 1020102
22 april, thu
thu2223:00+11n35705 0.0 1021121
02:00+8nw35803 0.0 1022123
05:00+7wnw23840 0.0 102482
08:00+9wnw33670 0.0 1026419
11:00+14wnw33460 0.0 10251028
14:00+17nw33340 0.0 10241395
17:00+19nnw23280 0.0 10241459
20:00+15nw23400 0.0 102452